Regional Weather Roundup
Issued by NWS Portland, ME

Home | Current Version | Previous Version | Text Only | Print | Product List | Glossary On
Versions: 1 2 3 4 5 6 7 8 9 10 11 12 13 14 15 16 17 18 19 20 21 22 23 24 25 26 27 28 29 30 31 32 33 34 35 36 37 38 39 40 41 42
000
ASUS41 KGYX 211205
RWRGYX
WEATHER ROUNDUP FOR MAINE AND NEW HAMPSHIRE
NATIONAL WEATHER SERVICE GRAY ME
800 AM EDT THU AUG 21 2014

MEZ002-005-006-010-012-015-018-020-021-024-026-027-029-211300-
MAINE

CITY           SKY/WX    TMP DP  RH WIND       PRES   REMARKS
PORTLAND       PTSUNNY   60  56  86 CALM      30.10R
6HR MIN TEMP:  54; 6HR MAX TEMP:  61;

SANFORD        CLOUDY    59  52  77 CALM      30.11R
BAR HARBOR     MOSUNNY   63  63 100 CALM      30.09S
WISCASSET      PTSUNNY   60  57  89 CALM      30.11R
6HR MIN TEMP:  52; 6HR MAX TEMP:  60;

ROCKLAND       PTSUNNY   63  61  94 CALM      30.07S
FRYEBURG       CLOUDY    57  56  96 CALM      30.12R
6HR MIN TEMP:  50; 6HR MAX TEMP:  57;

LEWISTONAUBURN PTSUNNY   57  54  88 CALM      30.11R
AUGUSTA        PTSUNNY   61  58  90 NW3       30.11R
6HR MIN TEMP:  56; 6HR MAX TEMP:  61;

WATERVILLE     PTSUNNY   63  59  88 N6        30.07R
BANGOR         PTSUNNY   63  58  83 N3        30.11R
6HR MIN TEMP:  56; 6HR MAX TEMP:  63;

GREENVILLE       N/A     62  59  90 CALM      30.12R
6HR MIN TEMP:  58; 6HR MAX TEMP:  62;

MILLINOCKET    PTSUNNY   65  59  81 NE6       30.14R
6HR MIN TEMP:  57; 6HR MAX TEMP:  65;

HOULTON        PTSUNNY   62  59  90 N5        30.14R
6HR MIN TEMP:  50; 6HR MAX TEMP:  62;

PRESQUE ISLE   CLOUDY    57  55  94 N6        30.15S
6HR MIN TEMP:  52; 6HR MAX TEMP:  57;

FRENCHVILLE    SUNNY     61  56  83 CALM      30.18R
6HR MIN TEMP:  54; 6HR MAX TEMP:  61;

CARIBOU        CLOUDY    58  56  93 NE6       30.16R FOG
6HR MIN TEMP:  56; 6HR MAX TEMP:  61;

$$

NHZ002-005-008-009-011-012-014-211300-
NEW HAMPSHIRE

CITY           SKY/WX    TMP DP  RH WIND       PRES   REMARKS
PORTSMOUTH     PTSUNNY   59  56  87 NW2       30.09R
ROCHESTER      CLOUDY    58  53  84 NW3       30.10R
6HR MIN TEMP:  51; 6HR MAX TEMP:  58;

NASHUA         CLOUDY    60  57  89 CALM      30.11R
MANCHESTER     CLOUDY    60  55  83 N3        30.09R
6HR MIN TEMP:  57; 6HR MAX TEMP:  60;

CONCORD        LGT RAIN  55  54  96 CALM      30.11R
6HR MIN TEMP:  51; 6HR MAX TEMP:  55; 6HR PCP: TRACE;

LACONIA        CLOUDY    59  55  88 CALM      30.09S
PLYMOUTH       FAIR      57  57 100 CALM      30.11R
BERLIN         FOG       54  54 100 CALM      30.13R VSB 1/4
6HR MIN TEMP:  51; 6HR MAX TEMP:  54;

WHITEFIELD     CLOUDY    57  55  93 CALM      30.11R
6HR MIN TEMP:  52; 6HR MAX TEMP:  57;

JAFFREY        CLOUDY    60  56  86 CALM      30.12R
6HR MIN TEMP:  56; 6HR MAX TEMP:  60;

LEBANON        CLOUDY    64  58  80 NW3       30.09R
6HR MIN TEMP:  61; 6HR MAX TEMP:  64;

MT WASHINGTON  NOT AVBL
$$

VTZ005-007-008-211300-
VERMONT

CITY           SKY/WX    TMP DP  RH WIND       PRES   REMARKS
ST JOHNSBURY     N/A     58  56  93 MISG      30.09R
MONTPELIER     LGT RAIN  61  59  93 CALM      30.13S
BURLINGTON     LGT RAIN  66  63  90 E6        30.05R
$$

MAZ007-012-024-CTZ003-RIZ002-NYZ038-NYZ072-211300-
SOUTHERN NEW ENGLAND AND NY

CITY           SKY/WX    TMP DP  RH WIND       PRES   REMARKS
BOSTON         PTSUNNY   63  60  90 NE5       30.09R
WORCESTER      MOSUNNY   64  54  69 CALM      30.11R
NANTUCKET      CLOUDY    66  62  87 E6        30.06R
PROVIDENCE     PTSUNNY   64  60  87 NE5       30.10R
HARTFORD       PTSUNNY   66  61  84 E3        30.07R
ALBANY         CLOUDY    66  63  90 E3        30.04S
NEW YORK CITY  PTSUNNY   71  62  73 VRB5      30.05R
$$

ANZ081-ANZ082-ANZ150-NHZ014-MEZ023>029-211300-
COASTAL MARINE OBSERVATIONS

STATION/POSITION TIME  TEMP    WIND        PRES    WAVE
                       AIR SEA DIR/SP/G            HT/PER
                 (UTC) (F)     (DEG/KT/KT) (MB)    (FT/S)
MATINICUS ROCK   1100          300/  3/  3 1018.1R
PORTLAND WX BUOY 1150   61 63  360/  4/  4 1018.7R   1/ 7
WELLS            1100   55 61  350/  3/  4 1018.0R
ISLE OF SHOALS   1100   59     320/  7/  8 1018.2R
JEFFREYS LEDGE   1121      66                N/A     2/ 7
CASHES LEDGE BUO 1150   66 67              1018.1S   2/ 7
$$

.............KEY..............
   WCI - WIND CHILL
   TC  - TEMPERATURE IN CELSIUS
   VSB - VISIBILITY IN MILES
   HX  - HEAT INDEX
   FAIR- INDICATES FEW OR NO CLOUDS BELOW 12,000 FT, WITH NO
         SIGNIFICANT WEATHER AND/OR OBSTRUCTIONS TO VISIBILITY.





USA.gov is the U.S. government's official web portal to all federal, state and local government web resources and services.